Regional Weather Roundup
Issued by NWS

Home | Current Version | Previous Version | Graphics & Text | Print | Product List | Glossary Off
Versions: 1 2 3 4 5 6 7 8 9 10 11 12 13 14 15 16 17 18 19 20 21 22 23 24 25 26 27 28 29 30 31 32 33 34 35 36 37 38 39 40 41 42 43 44 45 46 47 48 49 50

000
ASUS43 KMKX 291800
RWRWI

WISCONSIN REGIONAL WEATHER ROUNDUP
NATIONAL WEATHER SERVICE MILWAUKEE/SULLIVAN WI
100 PM CDT MON MAY 29 2017

NOTE: "FAIR" INDICATES FEW OR NO CLOUDS BELOW 12,000 FEET WITH NO
SIGNIFICANT WEATHER AND/OR OBSTRUCTIONS TO VISIBILITY.

WIZ001-002-006>008-014>016-023>028-291900-
NORTHWEST WISCONSIN

CITY           SKY/WX    TMP DP  RH WIND       PRES   REMARKS
SUPERIOR ARPT  NOT AVBL
ASHLAND        CLOUDY    59  49  69 W16G22    29.69R
6HR MIN TEMP:  53; 6HR MAX TEMP:  60;

HAYWARD        CLOUDY    58  46  64 W8G18     29.73R
6HR MIN TEMP:  53; 6HR MAX TEMP:  59; 6HR PCP:  0.02;

SIREN          PTSUNNY   60  45  57 NW15      29.76S
CUMBERLAND     RAIN      52  48  87 W13       29.78R
RICE LAKE      CLOUDY    58  49  71 W12       29.78S
6HR MIN TEMP:  53; 6HR MAX TEMP:  58;

CHETEK         CLOUDY    58  49  74 W13G18    29.77S
6HR MIN TEMP:  52; 6HR MAX TEMP:  59;

LADYSMITH      CLOUDY    60  50  70 SW16      29.76R
6HR MIN TEMP:  52; 6HR MAX TEMP:  60;

EAU CLAIRE     NOT AVBL
MENOMONIE      CLOUDY    62  47  59 W16G22    29.79S
6HR MIN TEMP:  55; 6HR MAX TEMP:  62;

NEW RICHMOND   LGT RAIN  56  48  74 W13G23    29.80S
6HR MIN TEMP:  52; 6HR MAX TEMP:  59;

OSCEOLA        CLOUDY    58  49  71 W15G22    29.83R
$$

WIZ003>005-009-010-017-018-291900-
NORTH CENTRAL WISCONSIN

CITY           SKY/WX    TMP DP  RH WIND       PRES   REMARKS
MANITOWISH WTR CLOUDY    60  49  67 W20       29.67S
6HR MIN TEMP:  48; 6HR MAX TEMP:  61;

ARBOR VITAE    PTSUNNY   57  54  89 W9        29.68R
WOODRUFF       PTSUNNY   57  54  89 W9        29.68R
RHINELANDER    PTSUNNY   60  49  66 W14G20    29.70R
6HR MIN TEMP:  52; 6HR MAX TEMP:  62; 6HR PCP: TRACE;

EAGLE RIVER    PTSUNNY   60  47  61 W17G25    29.67S
LAND O LAKES   PTSUNNY   61  46  58 W12G22    29.66F
6HR MIN TEMP:  49; 6HR MAX TEMP:  61;

PHILLIPS       CLOUDY    58  49  71 W8        29.70S
6HR MIN TEMP:  47; 6HR MAX TEMP:  58;

TOMAHAWK       HVY RAIN  55  49  80 SW12G23   29.72R
MEDFORD        DRIZZLE   53  48  83 W14G25    29.75R
MERRILL        CLOUDY    59  50  70 NW15G25   29.72S
6HR MIN TEMP:  51; 6HR MAX TEMP:  60; 6HR PCP:  0.01;

$$

WIZ029-030-035-036-043>047-291900-
CENTRAL WISCONSIN

CITY           SKY/WX    TMP DP  RH WIND       PRES   REMARKS
WAUSAU         CLOUDY    58  52  80 W18G28    29.72F
6HR MIN TEMP:  52; 6HR MAX TEMP:  58; 6HR PCP:  0.07;

MOSINEE        NOT AVBL
MARSHFIELD     CLOUDY    58  48  69 W16G26    29.75S
6HR MIN TEMP:  51; 6HR MAX TEMP:  61; 6HR PCP:  0.02;

STEVENS POINT  CLOUDY    59  47  63 SW15G24   29.75S
WAUPACA        CLOUDY    63  48  58 W16G24    29.76R
6HR MIN TEMP:  57; 6HR MAX TEMP:  64;

WAUTOMA        CLOUDY    64  46  52 W21G32    29.77S
6HR MIN TEMP:  54; 6HR MAX TEMP:  65;

WISC RAPIDS    CLOUDY    60  51  72 NW12      29.78R
6HR MIN TEMP:  52; 6HR MAX TEMP:  61; 6HR PCP:  0.06;

CAMP DOUGLAS   NOT AVBL
$$

WIZ011>013-019>022-031-037>040-048>050-291900-
NORTHEAST WISCONSIN

CITY           SKY/WX    TMP DP  RH WIND       PRES   REMARKS
ANTIGO         PTSUNNY   58  51  77 W16G23    29.71S
SHAWANO        CLOUDY    64  51  60 W9G26     29.72R
6HR MIN TEMP:  56; 6HR MAX TEMP:  66;

OCONTO         CLOUDY    66  49  53 W17G25    29.68R
STURGEON BAY   PTSUNNY   61  49  64 SW17        N/A
6HR MIN TEMP:  55; 6HR MAX TEMP:  66; 6HR PCP: TRACE;

GREEN BAY      PTSUNNY   64  51  62 SW20G29   29.72R
6HR MIN TEMP:  56; 6HR MAX TEMP:  66;

MANITOWOC      NOT AVBL
APPLETON       PTSUNNY   63  46  55 W20G28    29.73R
CLINTONVILLE   PTSUNNY   63  48  59 W14G22    29.72S
OSHKOSH        CLOUDY    63  48  58 W14G21    29.76R
6HR MIN TEMP:  57; 6HR MAX TEMP:  65;

$$

WIZ032>034-041-042-053>061-291900-
SOUTHWEST WISCONSIN

CITY           SKY/WX    TMP DP  RH WIND       PRES   REMARKS
LA CROSSE      CLOUDY    64  47  53 W17       29.81F
6HR MIN TEMP:  56; 6HR MAX TEMP:  65;

SPARTA         PTSUNNY   64  47  54 W13G23    29.81S
6HR MIN TEMP:  52; 6HR MAX TEMP:  64;

VIROQUA        CLOUDY    60  44  56 N10G18    29.84S
6HR MIN TEMP:  52; 6HR MAX TEMP:  62;

BOSCOBEL       MOSUNNY   67  45  45 W16G23    29.85R
6HR MIN TEMP:  58; 6HR MAX TEMP:  67;

PRAIRIE DU CHI PTSUNNY   66  41  40 W18G26    29.85R
PLATTEVILLE    MOSUNNY   67  47  48 W21G29    29.86S
$$

WIZ056-057-062-063-064-067-068-291900-
SOUTH CENTRAL WISCONSIN

CITY           SKY/WX    TMP DP  RH WIND       PRES   REMARKS
REEDSBURG      CLOUDY    64  47  54 W17G26    29.81R
6HR MIN TEMP:  55; 6HR MAX TEMP:  64;

BARABOO/DELLS  PTSUNNY   63  47  54 W18G26    29.80S
LONE ROCK      NOT AVBL
MINERAL POINT  CLOUDY    64  45  48 W18G26    29.84R
MADISON        PTSUNNY   66  47  50 W12G21    29.80S
6HR MIN TEMP:  58; 6HR MAX TEMP:  66;

MIDDLETON      PTSUNNY   67  48  50 W18G28    29.82R
6HR MIN TEMP:  58; 6HR MAX TEMP:  67;

WATERTOWN      CLOUDY    65  48  54 W15       29.80R
MONROE         MOSUNNY   66  45  45 W26       29.85R
JANESVILLE     PTSUNNY   72  46  40 W21G28    29.82R
$$

WIZ051-052-058>065-066-070>072-291900-
SOUTHEAST WISCONSIN

CITY           SKY/WX    TMP DP  RH WIND       PRES   REMARKS
MILWAUKEE      MOSUNNY   72  44  36 W23G31    29.79R
6HR MIN TEMP:  62; 6HR MAX TEMP:  73;

WAUKESHA       PTSUNNY   66  46  48 W14G22    29.80R
MILWAUKEE/TIMM PTSUNNY   70  39  32 W20G32    29.79R
RACINE         SUNNY     72  44  36 W13G30    29.80R
6HR MIN TEMP:  61; 6HR MAX TEMP:  72;

KENOSHA        MOSUNNY   72  47  40 W23G35    29.80R
6HR MIN TEMP:  60; 6HR MAX TEMP:  72;

FOND DU LAC    CLOUDY    65  46  50 W12G22    29.77R
6HR MIN TEMP:  56; 6HR MAX TEMP:  67;

SHEBOYGAN      CLOUDY    63  49  60 W14       29.76R
6HR MIN TEMP:  57; 6HR MAX TEMP:  67;

WEST BEND      PTSUNNY   64  45  48 W16G23    29.77R
JUNEAU         CLOUDY    63  47  55 W18G28    29.80R
$$

LSZ147-162-291900-
LAKE SUPERIOR

STATION/POSITION TIME  TEMP    WIND        PRES    WAVE
                       AIR SEA DIR/SP/G            HT/PER
                 (UTC) (F)     (DEG/KT/KT) (MB)    (FT/S)
W MID LAKE BUOY  1650   43 37  250/ 16/ 17 1002.5S   2/ 4
DEVILS ISLAND    1700   48     230/ 22/ 24 1004.0R
SAXON HARBOR     1740   58     270/  9/ 14 1004.7R
$$

LMZ867-665-643>646-291900-
LAKE MICHIGAN

STATION/POSITION TIME  TEMP    WIND        PRES    WAVE
                       AIR SEA DIR/SP/G            HT/PER
                 (UTC) (F)     (DEG/KT/KT) (MB)    (FT/S)
CHAMBERS ISLAND  1740   63     200/  7/ 18 1003.7S
N MID LAKE BUOY  1650   45 42  180/ 12/ 14 1005.3R   1/ 4
NORTHPORT PIER   1740   69     200/  8/ 17 1003.7S
KEWAUNEE LAKESHO 1730   65     240/ 13/ 18 1005.5R
SHEBOYGAN LAKESH 1700   65     260/ 18/ 23 1006.4R
PORT WASHINGTON  1740   69     290/  9/ 18 1008.8R
ATWATER BUOY     1609   64     250/ 19/ 27 1007.9R
MILWAUKEE LAKESH 1740   68     280/ 18/ 22   N/A
S MID LAKE BUOY  1650   53 47  230/ 10/ 10 1008.8R   1
KENOSHA   LAKESH 1700   71     260/ 20/ 30 1008.5
$$

TC  - TEMPERATURE IN CELSIUS
VSB - VISIBILITY IN STATUTE MILES
WCI - WIND CHILL INDEX
HX  - HEAT INDEX





USA.gov is the U.S. government's official web portal to all federal, state and local government web resources and services.